Hourly Weather Zhokino

Today, 15 July, Wednesday

Time Temperature Precipitation Wind Pressure Humidity
00:00 +18°C° 0 mm 4 mps 735 mmHg 95%
01:00 +17°C° 0 mm 5 mps 736 mmHg 95%
02:00 +16°C° 0 mm 5 mps 736 mmHg 96%
03:00 +16°C° 0 mm 5 mps 736 mmHg 97%
04:00 +16°C° 0 mm 5 mps 737 mmHg 96%
05:00 +16°C° 0 mm 5 mps 737 mmHg 94%
06:00 +16°C° 0 mm 6 mps 737 mmHg 93%
07:00 +16°C° 0.1 mm 6 mps 737 mmHg 91%
08:00 +16°C° 0.1 mm 7 mps 737 mmHg 90%
09:00 +16°C° 0.1 mm 7 mps 737 mmHg 89%
10:00 +16°C° 0.3 mm 7 mps 737 mmHg 90%
11:00 +15°C° 0.3 mm 7 mps 737 mmHg 91%
12:00 +15°C° 0.3 mm 7 mps 738 mmHg 92%
13:00 +15°C° 0.3 mm 7 mps 738 mmHg 91%
14:00 +14°C° 0.3 mm 7 mps 738 mmHg 89%
15:00 +14°C° 0.3 mm 7 mps 738 mmHg 88%
16:00 +14°C° 0.1 mm 7 mps 738 mmHg 88%
17:00 +12°C° 0.1 mm 7 mps 738 mmHg 89%
18:00 +12°C° 0.1 mm 7 mps 738 mmHg 89%
19:00 +12°C° 0.2 mm 7 mps 739 mmHg 90%
20:00 +11°C° 0.2 mm 7 mps 739 mmHg 92%
21:00 +11°C° 0.2 mm 7 mps 739 mmHg 93%
22:00 +11°C° 0.1 mm 7 mps 739 mmHg 94%
23:00 +12°C° 0.1 mm 7 mps 739 mmHg 94%

Tomorrow, 16 July, Thursday

Time Temperature Precipitation Wind Pressure Humidity
00:00 +12°C° 0.1 mm 7 mps 739 mmHg 94%
01:00 +12°C° 0.1 mm 7 mps 739 mmHg 94%
02:00 +12°C° 0.1 mm 7 mps 739 mmHg 94%
03:00 +12°C° 0.1 mm 7 mps 739 mmHg 93%
04:00 +12°C° 0.1 mm 7 mps 739 mmHg 94%
05:00 +12°C° 0.1 mm 7 mps 740 mmHg 94%
06:00 +12°C° 0.1 mm 7 mps 740 mmHg 94%
07:00 +12°C° 0 mm 7 mps 740 mmHg 93%
08:00 +12°C° 0 mm 7 mps 741 mmHg 92%
09:00 +13°C° 0 mm 6 mps 741 mmHg 91%
10:00 +14°C° 0 mm 6 mps 741 mmHg 89%
11:00 +14°C° 0 mm 6 mps 742 mmHg 87%
12:00 +15°C° 0 mm 7 mps 742 mmHg 85%
13:00 +15°C° 0.1 mm 6 mps 742 mmHg 85%
14:00 +15°C° 0.1 mm 6 mps 743 mmHg 85%
15:00 +15°C° 0.1 mm 6 mps 743 mmHg 85%
16:00 +15°C° 0.1 mm 6 mps 743 mmHg 86%
17:00 +15°C° 0.1 mm 5 mps 743 mmHg 86%
18:00 +15°C° 0.1 mm 5 mps 743 mmHg 87%
19:00 +14°C° 0 mm 4 mps 743 mmHg 88%
20:00 +14°C° 0 mm 4 mps 743 mmHg 89%
21:00 +13°C° 0 mm 4 mps 744 mmHg 91%
22:00 +13°C° 0 mm 4 mps 744 mmHg 91%
23:00 +13°C° 0 mm 4 mps 743 mmHg 91%

Day after tomorrow, 17 July, Friday

Time Temperature Precipitation Wind Pressure Humidity
00:00 +13°C° 0 mm 3 mps 743 mmHg 91%
01:00 +12°C° 0 mm 3 mps 743 mmHg 93%
02:00 +12°C° 0 mm 3 mps 744 mmHg 94%
03:00 +11°C° 0 mm 3 mps 744 mmHg 95%
04:00 +12°C° 0 mm 3 mps 744 mmHg 95%
05:00 +12°C° 0 mm 3 mps 744 mmHg 94%
06:00 +12°C° 0 mm 3 mps 744 mmHg 93%
07:00 +13°C° 0 mm 3 mps 744 mmHg 92%
08:00 +14°C° 0 mm 3 mps 745 mmHg 90%
09:00 +15°C° 0 mm 4 mps 745 mmHg 88%
10:00 +15°C° 0 mm 4 mps 745 mmHg 86%
11:00 +17°C° 0 mm 4 mps 745 mmHg 84%
12:00 +18°C° 0 mm 4 mps 745 mmHg 81%
13:00 +19°C° 0.1 mm 4 mps 745 mmHg 79%
14:00 +19°C° 0.1 mm 3 mps 745 mmHg 77%
15:00 +20°C° 0.1 mm 3 mps 745 mmHg 75%
16:00 +19°C° 0.3 mm 3 mps 745 mmHg 79%
17:00 +19°C° 0.3 mm 3 mps 746 mmHg 83%
18:00 +18°C° 0.3 mm 2 mps 746 mmHg 87%
19:00 +17°C° 0 mm 2 mps 746 mmHg 88%
20:00 +17°C° 0 mm 2 mps 746 mmHg 89%
21:00 +16°C° 0 mm 2 mps 746 mmHg 90%
22:00 +16°C° 0 mm 2 mps 746 mmHg 91%
23:00 +15°C° 0 mm 2 mps 746 mmHg 91%

18 July, Saturday

Time Temperature Precipitation Wind Pressure Humidity
00:00 +15°C° 0 mm 2 mps 747 mmHg 92%
01:00 +15°C° 0 mm 2 mps 747 mmHg 92%
02:00 +14°C° 0 mm 2 mps 747 mmHg 93%
03:00 +14°C° 0 mm 2 mps 747 mmHg 94%
04:00 +14°C° 0 mm 2 mps 747 mmHg 94%
05:00 +14°C° 0 mm 2 mps 747 mmHg 94%
06:00 +14°C° 0 mm 2 mps 748 mmHg 94%
07:00 +15°C° 0 mm 2 mps 748 mmHg 91%
08:00 +17°C° 0 mm 2 mps 748 mmHg 87%
09:00 +18°C° 0 mm 2 mps 748 mmHg 84%
10:00 +19°C° 0.1 mm 2 mps 748 mmHg 80%
11:00 +19°C° 0.1 mm 3 mps 748 mmHg 77%
12:00 +20°C° 0.1 mm 3 mps 748 mmHg 73%
13:00 +21°C° 0.1 mm 3 mps 748 mmHg 72%
14:00 +21°C° 0.1 mm 4 mps 748 mmHg 71%
15:00 +21°C° 0.1 mm 4 mps 748 mmHg 70%
16:00 +21°C° 0 mm 4 mps 748 mmHg 71%
17:00 +20°C° 0 mm 3 mps 748 mmHg 72%
18:00 +20°C° 0 mm 3 mps 748 mmHg 73%
19:00 +19°C° 0 mm 3 mps 748 mmHg 78%
20:00 +17°C° 0 mm 2 mps 748 mmHg 83%
21:00 +16°C° 0 mm 2 mps 748 mmHg 88%
22:00 +15°C° 0 mm 2 mps 748 mmHg 90%
23:00 +15°C° 0 mm 2 mps 748 mmHg 92%

19 July, Sunday

Time Temperature Precipitation Wind Pressure Humidity
00:00 +13°C° 0 mm 3 mps 748 mmHg 94%
01:00 +14°C° 0 mm 2 mps 748 mmHg 94%
02:00 +13°C° 0 mm 2 mps 748 mmHg 94%
03:00 +13°C° 0 mm 2 mps 748 mmHg 94%
04:00 +13°C° 0 mm 2 mps 748 mmHg 94%
05:00 +14°C° 0 mm 2 mps 748 mmHg 93%
06:00 +14°C° 0 mm 2 mps 748 mmHg 92%
07:00 +16°C° 0 mm 3 mps 748 mmHg 88%
08:00 +17°C° 0 mm 3 mps 748 mmHg 84%
09:00 +19°C° 0 mm 3 mps 747 mmHg 80%
10:00 +19°C° 0.2 mm 4 mps 747 mmHg 78%
11:00 +20°C° 0.2 mm 4 mps 747 mmHg 76%
12:00 +21°C° 0.2 mm 4 mps 747 mmHg 74%
13:00 +21°C° 0.2 mm 4 mps 747 mmHg 72%
14:00 +22°C° 0.2 mm 4 mps 746 mmHg 71%
15:00 +22°C° 0.2 mm 4 mps 746 mmHg 69%
16:00 +22°C° 0.1 mm 4 mps 746 mmHg 71%
17:00 +21°C° 0.1 mm 3 mps 746 mmHg 74%
18:00 +21°C° 0.1 mm 3 mps 745 mmHg 76%
19:00 +19°C° 0.1 mm 3 mps 745 mmHg 80%
20:00 +18°C° 0.1 mm 3 mps 745 mmHg 84%
21:00 +16°C° 0.1 mm 3 mps 745 mmHg 88%
22:00 +16°C° 0 mm 3 mps 745 mmHg 89%
23:00 +14°C° 0 mm 3 mps 745 mmHg 90%

20 July, Monday

Time Temperature Precipitation Wind Pressure Humidity
00:00 +14°C° 0 mm 3 mps 744 mmHg 91%
01:00 +14°C° 0 mm 3 mps 744 mmHg 92%
02:00 +13°C° 0 mm 3 mps 744 mmHg 93%
03:00 +13°C° 0 mm 3 mps 744 mmHg 93%
04:00 +13°C° 0 mm 3 mps 744 mmHg 93%
05:00 +14°C° 0 mm 3 mps 744 mmHg 92%
06:00 +14°C° 0 mm 3 mps 743 mmHg 92%
07:00 +16°C° 0 mm 3 mps 743 mmHg 89%
08:00 +18°C° 0 mm 3 mps 743 mmHg 86%
09:00 +19°C° 0 mm 3 mps 743 mmHg 84%
10:00 +20°C° 0 mm 3 mps 742 mmHg 81%
11:00 +21°C° 0 mm 3 mps 742 mmHg 79%
12:00 +21°C° 0 mm 3 mps 742 mmHg 77%
13:00 +22°C° 0.6 mm 3 mps 742 mmHg 75%
14:00 +24°C° 0.6 mm 3 mps 741 mmHg 74%
15:00 +24°C° 0.6 mm 3 mps 741 mmHg 72%
16:00 +24°C° 1.3 mm 3 mps 740 mmHg 75%
17:00 +22°C° 1.3 mm 3 mps 740 mmHg 78%
18:00 +22°C° 1.3 mm 3 mps 740 mmHg 81%
19:00 +20°C° 0.2 mm 3 mps 740 mmHg 84%
20:00 +19°C° 0.2 mm 3 mps 739 mmHg 88%
21:00 +18°C° 0.2 mm 3 mps 739 mmHg 92%
22:00 +17°C° 0 mm 3 mps 739 mmHg 93%
23:00 +16°C° 0 mm 3 mps 739 mmHg 93%
Show more